Location: Unspecified
(0.0000°N, 0.0000°E)
Time: 04:01:26
(UTC+00:00)

Explorer 11/Cluster Stage 4 - Visible Passes

Search period start: 01 October 2014 00:00
Search period end: 11 October 2014 00:00
Orbit: 468 x 1283 km, 28.8° (Epoch: 30 September)

Date Brightness Start Highest point End Pass type
(mag) Time Alt. Az. Time Alt. Az. Time Alt. Az.
01 Oct 9.4 02:35:25 19° E 02:35:25 19° E 02:37:14 10° E visible
01 Oct 7.1 04:17:51 42° W 04:20:17 66° NNW 04:26:28 10° NE visible
02 Oct 9.5 02:29:32 16° E 02:29:32 16° E 02:30:47 10° ENE visible
02 Oct 7.3 04:11:58 47° WNW 04:13:23 53° NNW 04:19:39 10° NE visible
03 Oct 9.7 02:23:36 13° ENE 02:23:36 13° ENE 02:24:12 10° ENE visible
03 Oct 7.6 04:06:02 44° NW 04:06:28 44° NNW 04:12:45 10° NE visible
04 Oct 7.9 04:00:01 36° NNW 04:00:01 36° NNW 04:05:46 10° NNE visible
05 Oct 8.3 03:53:56 29° NNW 03:53:56 29° NNW 03:58:42 10° NNE visible
06 Oct 8.7 03:47:47 23° N 03:47:47 23° N 03:51:34 10° NNE visible
07 Oct 9.0 03:41:32 18° N 03:41:32 18° N 03:44:20 10° NNE visible
08 Oct 9.2 03:35:14 15° N 03:35:14 15° N 03:37:01 10° NNE visible
09 Oct 9.5 03:28:51 12° N 03:28:51 12° N 03:29:35 10° N visible
